Location: Minneapolis
(44.9800°N, 93.2640°W)
Time: 16:48:48
(UTC-05:00)

Amateur Radio Satellites - All Passes

Search period start: 20 October 2017 16:18
Search period end: 21 October 2017 16:18
Location: Minneapolis, 44.9800°N, 93.2640°W

Satellite Date Start Highest point End Downlink Frequencies (MHz)
Time Altitude Azimuth
ISS 20 Oct 16:23:53 16:27:09 80° 27° (NNE) 16:30:27 437.550
BEESAT 20 Oct 16:24:24 16:29:06 52° 100° (E) 16:33:44 436.000
DOVE 4 20 Oct 16:31:37 16:34:48 21° 64° (ENE) 16:38:06 437.250
SO-50 20 Oct 16:35:27 16:39:53 47° 241° (WSW) 16:44:22 436.795
UKube-1 20 Oct 16:37:13 16:40:04 17° 298° (WNW) 16:42:54 .
PCSat 20 Oct 16:51:06 16:55:58 32° 46° (NE) 17:00:48 145.827
HO-68 20 Oct 16:54:35 16:55:18 10° 42° (NE) 16:56:02 435.675
AO-7 20 Oct 17:00:52 17:08:07 33° 264° (W) 17:15:24 .
KKS-1 20 Oct 17:07:18 17:08:24 11° 88° (E) 17:09:31 437.445
MOZHAYETS 4 20 Oct 17:15:51 17:20:11 41° 290° (WNW) 17:24:27
KAITUO 1B 20 Oct 17:23:30 17:24:54 12° 62° (ENE) 17:26:16 145.475/437.950
XW-2F 20 Oct 17:24:39 17:26:55 16° 65° (ENE) 17:29:11 145.980 - 146.000
CUBESAT XI-V 20 Oct 17:27:11 17:31:45 62° 101° (E) 17:36:18 437.345
nSIGHT-1 20 Oct 17:27:19 17:30:02 25° 222° (SW) 17:32:44 .
ITAMSAT 1 20 Oct 17:28:22 17:31:28 16° 270° (W) 17:34:36 435.822/435.867
LilacSat-2 20 Oct 17:29:36 17:32:26 20° 67° (ENE) 17:35:16 437.200
XW-2D 20 Oct 17:36:21 17:39:20 22° 68° (ENE) 17:42:21 145.860 - 145.880
NUDT-PHONESAT 20 Oct 17:36:24 17:38:39 16° 65° (ENE) 17:40:55 437.300
ITUPSAT 1 20 Oct 17:47:12 17:51:15 28° 295° (WNW) 17:55:17 437.325
XW-2B 20 Oct 17:49:25 17:52:45 30° 69° (ENE) 17:56:05 145.730 - 145.750
CUTE-I 20 Oct 17:56:53 18:01:49 40° 67° (ENE) 18:06:47 437.470
ISS 20 Oct 18:01:14 18:03:16 16° 226° (SW) 18:05:18 437.550
BEESAT 20 Oct 18:03:00 18:06:29 20° 298° (WNW) 18:09:57 436.000
DOVE 4 20 Oct 18:08:19 18:12:15 38° 263° (W) 18:16:20 437.250
XW-2C 20 Oct 18:12:12 18:15:56 56° 74° (ENE) 18:19:40 145.795 - 145.815
PCSat 20 Oct 18:34:22 18:39:32 46° 246° (WSW) 18:44:40 145.827
HO-68 20 Oct 18:34:32 18:41:14 45° 64° (ENE) 18:47:58 435.675
CUBEBUG 2 20 Oct 18:34:33 18:37:36 17° 62° (ENE) 18:40:41 437.445
KKS-1 20 Oct 18:41:01 18:45:32 81° 285° (WNW) 18:50:00 437.445
KAITUO 1B 20 Oct 18:54:43 18:58:24 59° 260° (W) 19:02:05 145.475/437.950
XW-2F 20 Oct 18:57:04 19:00:41 43° 261° (W) 19:04:18 145.980 - 146.000
LilacSat-2 20 Oct 19:03:03 19:06:31 32° 263° (W) 19:09:59 437.200
CUBESAT XI-V 20 Oct 19:05:47 19:08:39 16° 298° (WNW) 19:11:30 437.345
XW-2A 20 Oct 19:05:59 19:08:04 16° 66° (ENE) 19:10:10 145.665 - 145.685
CUTE 1.7 + AOD 2 20 Oct 19:06:14 19:10:19 50° 73° (ENE) 19:14:24 437.475
NUDT-PHONESAT 20 Oct 19:08:39 19:12:11 41° 261° (W) 19:15:44 437.300
XW-2D 20 Oct 19:10:05 19:13:23 28° 264° (W) 19:16:42 145.860 - 145.880
UWE-3 20 Oct 19:11:24 19:15:01 23° 65° (ENE) 19:18:39 435.000/436.395/437.385
STARS 20 Oct 19:13:02 19:17:30 89° 302° (WNW) 19:21:57 437.465
SEEDS 20 Oct 19:13:06 19:16:55 36° 70° (ENE) 19:20:46 437.485
XW-2B 20 Oct 19:24:01 19:26:57 21° 266° (W) 19:29:53 145.730 - 145.750
Oscar 11 20 Oct 19:27:37 19:28:41 11° 59° (ENE) 19:29:44 .
YUBILEINY 20 Oct 19:34:57 19:41:55 25° 62° (ENE) 19:48:50 435.215
AAUSAT CUBESAT 2 20 Oct 19:36:24 19:39:58 29° 68° (ENE) 19:43:32 437.432
CUTE-I 20 Oct 19:37:22 19:41:57 29° 265° (W) 19:46:35 437.470
XW-2C 20 Oct 19:49:09 19:50:27 11° 271° (W) 19:51:45 145.795 - 145.815
AO-73 20 Oct 20:01:35 20:05:42 34° 69° (ENE) 20:09:49 145.935
STRAND 1 20 Oct 20:01:45 20:06:15 29° 95° (E) 20:10:43 437.568
CUBEBUG 2 20 Oct 20:09:03 20:13:41 62° 259° (W) 20:18:26 437.445
AO-85 20 Oct 20:18:04 20:19:51 12° 31° (NNE) 20:21:41 145.980
KKS-1 20 Oct 20:20:35 20:21:18 10° 303° (WNW) 20:22:02 437.445
HO-68 20 Oct 20:22:22 20:29:00 40° 262° (W) 20:35:42 435.675
ZACube-1 20 Oct 20:23:21 20:27:53 62° 73° (ENE) 20:32:25 437.345
BEESAT 2 20 Oct 20:23:34 20:25:38 13° 34° (NE) 20:27:41 435.950
XW-2A 20 Oct 20:37:22 20:40:31 34° 262° (W) 20:43:40 145.665 - 145.685
BEESAT 3 20 Oct 20:38:36 20:42:20 37° 48° (NE) 20:46:00 437.485
CUTE 1.7 + AOD 2 20 Oct 20:43:50 20:46:26 16° 269° (W) 20:49:01 437.475
UWE-3 20 Oct 20:46:45 20:51:10 44° 262° (W) 20:55:40 435.000/436.395/437.385
O/OREOS (USA 219) 20 Oct 20:47:10 20:51:17 35° 106° (ESE) 20:55:28 437.305
SEEDS 20 Oct 20:49:33 20:52:43 21° 267° (W) 20:55:53 437.485
STARS 20 Oct 20:51:47 20:53:08 11° 302° (WNW) 20:54:28 437.465
Oscar 11 20 Oct 20:59:46 21:04:07 89° 264° (W) 21:08:29 .
DELFI C3 20 Oct 21:01:44 21:04:40 21° 66° (ENE) 21:07:37 145.870
AAUSAT CUBESAT 2 20 Oct 21:12:00 21:15:24 25° 266° (W) 21:18:49 437.432
YUBILEINY 20 Oct 21:30:56 21:39:45 81° 265° (W) 21:48:35 435.215
AO-73 20 Oct 21:38:04 21:41:56 27° 266° (W) 21:45:50 145.935
EO-88 20 Oct 21:39:46 21:42:54 27° 69° (ENE) 21:46:02 145.990 - 145.960
STRAND 1 20 Oct 21:40:44 21:45:29 38° 293° (WNW) 21:50:13 437.568
UNISAT 6 20 Oct 21:44:55 21:45:45 10° 86° (E) 21:46:36 437.425
FO-29 20 Oct 21:45:23 21:52:07 53° 99° (E) 21:59:29 435.910
Max Valier Satellite 20 Oct 21:49:57 21:53:34 50° 73° (ENE) 21:57:12 145.860
AO-85 20 Oct 21:56:46 22:01:10 53° 51° (NE) 22:05:55 145.980
TIGRISAT 20 Oct 21:58:16 22:00:37 14° 88° (E) 22:02:55 435.000
BEESAT 2 20 Oct 22:00:00 22:04:04 76° 54° (NE) 22:08:04 435.950
ZACube-1 20 Oct 22:01:57 22:04:32 15° 271° (W) 22:07:10 437.345
BEESAT 3 20 Oct 22:16:31 22:19:41 23° 246° (WSW) 22:22:48 437.485
O/OREOS (USA 219) 20 Oct 22:26:48 22:30:45 28° 304° (NW) 22:34:44 437.305
LO-87 20 Oct 22:29:05 22:31:09 15° 64° (ENE) 22:33:14 145.935 - 145.965
DELFI C3 20 Oct 22:35:40 22:39:13 33° 263° (W) 22:42:47 145.870
PRISM 20 Oct 22:40:38 22:43:13 16° 92° (E) 22:45:46 437.425
ESTCUBE 1 20 Oct 23:05:33 23:09:31 32° 68° (ENE) 23:13:29 437.505/2401.250
EO-88 20 Oct 23:13:42 23:16:32 21° 266° (W) 23:19:22 145.990 - 145.960
UNISAT 6 20 Oct 23:18:27 23:23:07 85° 285° (WNW) 23:27:38 437.425
Max Valier Satellite 20 Oct 23:26:05 23:27:40 12° 270° (W) 23:29:17 145.860
YUBILEINY 20 Oct 23:29:58 23:35:05 17° 285° (WNW) 23:40:13 435.215
AIST 2D 20 Oct 23:30:47 23:32:25 13° 91° (E) 23:34:02 435.315
FO-29 20 Oct 23:30:54 23:36:56 35° 295° (WNW) 23:43:32 435.910
TIGRISAT 20 Oct 23:33:11 23:37:47 67° 287° (WNW) 23:42:15 435.000
AO-85 20 Oct 23:37:47 23:41:20 22° 247° (WSW) 23:45:04 145.980
BEESAT 2 20 Oct 23:39:52 23:41:11 11° 251° (WSW) 23:42:29 435.950
SPROUT 20 Oct 23:41:27 23:44:30 19° 64° (ENE) 23:47:34 437.525
RS-15 20 Oct 23:57:49 00:07:57 32° 103° (ESE) 00:18:04 29.354- 29.394
LO-87 21 Oct 00:00:48 00:04:13 41° 261° (W) 00:07:41 145.935 - 145.965
EO-79 21 Oct 00:10:02 00:12:38 16° 91° (E) 00:15:13 145.935-145.965
POLYITAN 1 21 Oct 00:14:42 00:17:35 17° 92° (E) 00:20:27 437.675
PRISM 21 Oct 00:14:45 00:18:44 48° 289° (WNW) 00:22:42 437.425
VELOX 1 21 Oct 00:29:03 00:33:10 41° 70° (ENE) 00:37:18 145.980
QB50P2 21 Oct 00:34:19 00:38:08 31° 96° (E) 00:41:54 145.880/145.840
NANOSAT C BR1 21 Oct 00:37:07 00:40:44 27° 95° (E) 00:44:19 145.865
50 SAT 21 Oct 00:37:57 00:39:02 11° 63° (ENE) 00:40:07 437.505
ESTCUBE 1 21 Oct 00:42:27 00:46:18 28° 265° (W) 00:50:10 437.505/2401.250
DUCHIFAT 1 21 Oct 00:47:27 00:51:12 30° 96° (E) 00:54:55 145.980
UNISAT 6 21 Oct 00:57:38 00:59:01 11° 303° (WNW) 01:00:24 437.425
AIST 2D 21 Oct 01:02:31 01:05:47 40° 288° (WNW) 01:09:03 435.315
SPROUT 21 Oct 01:15:59 01:20:04 44° 261° (W) 01:24:13 437.525
DX 1 21 Oct 01:33:22 01:37:33 50° 71° (ENE) 01:41:46 434.975-435.025
EO-79 21 Oct 01:44:33 01:48:41 51° 288° (WNW) 01:52:48 145.935-145.965
Oscar 19 21 Oct 01:44:56 01:48:30 19° 91° (E) 01:52:04 437.125/150
POLYITAN 1 21 Oct 01:49:30 01:53:36 45° 289° (WNW) 01:57:38 437.675
UKube-1 21 Oct 01:56:06 02:00:18 56° 72° (ENE) 02:04:32 .
BEESAT 21 Oct 01:59:04 02:00:10 11° 56° (NE) 02:01:17 436.000
VELOX 1 21 Oct 02:06:31 02:09:46 20° 267° (W) 02:13:04 145.980
RS-15 21 Oct 02:06:51 02:19:13 83° 306° (NW) 02:31:34 29.354- 29.394
50 SAT 21 Oct 02:07:48 02:10:56 45° 260° (W) 02:14:06 437.505
QB50P2 21 Oct 02:10:15 02:13:48 26° 293° (WNW) 02:17:21 145.880/145.840
NANOSAT C BR1 21 Oct 02:12:42 02:16:25 30° 292° (WNW) 02:20:05 145.865
Gurwin Techsat 1B 21 Oct 02:20:31 02:25:06 28° 95° (E) 02:29:38 435.225
DUCHIFAT 1 21 Oct 02:23:12 02:26:46 26° 293° (WNW) 02:30:17 145.980
BUGSAT 1 21 Oct 02:27:51 02:32:06 83° 287° (WNW) 02:36:17 437.445
MOZHAYETS 4 21 Oct 02:42:47 02:46:40 27° 66° (ENE) 02:50:34
AO-7 21 Oct 03:08:13 03:12:45 15° 87° (E) 03:17:15 .
DX 1 21 Oct 03:11:16 03:14:01 16° 268° (W) 03:16:47 434.975-435.025
ITUPSAT 1 21 Oct 03:17:23 03:22:04 54° 71° (ENE) 03:26:46 437.325
M-CUBED/EXP-1 PRIME 21 Oct 03:17:55 03:21:29 87° 286° (WNW) 03:25:17 437.505
Oscar 19 21 Oct 03:23:11 03:28:12 58° 289° (WNW) 03:33:13 437.125/150
BEESAT 21 Oct 03:32:20 03:37:06 76° 74° (ENE) 03:41:54 436.000
UKube-1 21 Oct 03:34:17 03:36:40 15° 269° (W) 03:39:05 .
NO-84 21 Oct 03:36:14 03:40:23 48° 136° (SE) 03:44:29 435.350 FM
ITAMSAT 1 21 Oct 03:57:56 04:01:52 21° 92° (E) 04:05:47 435.822/435.867
Gurwin Techsat 1B 21 Oct 04:00:11 04:05:09 41° 293° (WNW) 04:10:06 435.225
KKS-1 21 Oct 04:06:38 04:09:00 14° 60° (ENE) 04:11:22 437.445
MOZHAYETS 4 21 Oct 04:19:27 04:23:41 35° 263° (W) 04:27:57
RS-15 21 Oct 04:22:40 04:33:48 37° 335° (NNW) 04:44:46 29.354- 29.394
CUBESAT XI-V 21 Oct 04:31:58 04:36:35 75° 75° (ENE) 04:41:12 437.345
STARS 21 Oct 04:37:54 04:39:44 12° 59° (ENE) 04:41:36 437.465
ITUPSAT 1 21 Oct 04:56:50 05:00:12 19° 268° (W) 05:03:34 437.325
AO-7 21 Oct 04:58:31 05:06:52 75° 107° (ESE) 05:15:10 .
BEESAT 21 Oct 05:13:14 05:15:25 13° 271° (W) 05:17:37 436.000
NO-84 21 Oct 05:13:53 05:17:55 38° 334° (NNW) 05:21:50 435.350 FM
O/OREOS (USA 219) 21 Oct 05:16:52 05:19:20 14° 47° (NE) 05:21:47 437.305
ITAMSAT 1 21 Oct 05:36:32 05:41:39 54° 290° (WNW) 05:46:44 435.822/435.867
KKS-1 21 Oct 05:40:35 05:44:59 70° 257° (WSW) 05:49:26 437.445
DOVE 4 21 Oct 06:03:42 06:08:32 48° 99° (E) 06:13:34 437.250
STARS 21 Oct 06:11:03 06:15:26 80° 256° (WSW) 06:19:53 437.465
CUBESAT XI-V 21 Oct 06:12:34 06:14:28 12° 272° (W) 06:16:22 437.345
CUTE-I 21 Oct 06:13:26 06:15:56 13° 88° (E) 06:18:26 437.470
KAITUO 1B 21 Oct 06:25:44 06:26:50 11° 90° (E) 06:27:55 145.475/437.950
XW-2F 21 Oct 06:27:54 06:30:10 15° 92° (E) 06:32:27 145.980 - 146.000
LilacSat-2 21 Oct 06:34:19 06:37:15 21° 94° (E) 06:40:10 437.200
NUDT-PHONESAT 21 Oct 06:37:39 06:39:47 15° 91° (E) 06:41:55 437.300
XW-2D 21 Oct 06:40:19 06:43:24 24° 95° (E) 06:46:26 145.860 - 145.880
RS-15 21 Oct 06:40:33 06:50:55 30° 9° (N) 07:00:55 29.354- 29.394
SO-50 21 Oct 06:51:28 06:55:29 33° 116° (ESE) 06:59:32 436.795
AO-7 21 Oct 06:52:07 06:58:55 30° 307° (NW) 07:05:44 .
NO-84 21 Oct 06:53:01 06:56:12 20° 354° (N) 06:59:15 435.350 FM
XW-2B 21 Oct 06:53:34 06:56:58 32° 97° (E) 07:00:21 145.730 - 145.750
O/OREOS (USA 219) 21 Oct 06:54:47 06:59:25 86° 245° (WSW) 07:04:00 437.305
XW-2C 21 Oct 07:16:38 07:20:22 64° 101° (E) 07:24:04 145.795 - 145.815
STRAND 1 21 Oct 07:19:16 07:24:13 51° 70° (ENE) 07:29:13 437.568
PCSat 21 Oct 07:36:35 07:39:58 17° 105° (ESE) 07:43:20 145.827
DOVE 4 21 Oct 07:42:00 07:45:57 24° 295° (WNW) 07:50:01 437.250
HO-68 21 Oct 07:47:17 07:53:55 38° 97° (E) 08:00:30 435.675
CUTE-I 21 Oct 07:51:16 07:56:40 86° 286° (WNW) 08:02:03 437.470
KAITUO 1B 21 Oct 07:57:32 08:01:08 54° 287° (WNW) 08:04:44 145.475/437.950
XW-2A 21 Oct 07:58:27 07:59:33 11° 91° (E) 08:00:39 145.665 - 145.685
CUBEBUG 2 21 Oct 07:58:27 08:02:19 25° 93° (E) 08:06:03 437.445
XW-2F 21 Oct 08:00:59 08:04:28 38° 288° (WNW) 08:07:56 145.980 - 146.000
FO-29 21 Oct 08:01:54 08:06:03 24° 60° (ENE) 08:10:28 435.910
LilacSat-2 21 Oct 08:08:15 08:11:32 29° 291° (WNW) 08:14:48 437.200
NUDT-PHONESAT 21 Oct 08:10:23 08:13:50 39° 288° (WNW) 08:17:14 437.300
ZACube-1 21 Oct 08:13:01 08:13:25 10° 87° (E) 08:13:49 437.345
XW-2D 21 Oct 08:14:24 08:17:31 25° 292° (WNW) 08:20:38 145.860 - 145.880
CUTE 1.7 + AOD 2 21 Oct 08:24:29 08:28:41 78° 101° (E) 08:32:54 437.475
XW-2B 21 Oct 08:28:12 08:30:56 19° 294° (WNW) 08:33:39 145.730 - 145.750
SEEDS 21 Oct 08:29:53 08:33:59 54° 100° (E) 08:38:04 437.485
NO-84 21 Oct 08:31:16 08:34:39 25° 15° (NNE) 08:37:51 435.350 FM
SO-50 21 Oct 08:31:49 08:35:55 34° 315° (NW) 08:40:03 436.795
UWE-3 21 Oct 08:34:28 08:38:35 33° 96° (E) 08:42:33 435.000/436.395/437.385
YUBILEINY 21 Oct 08:39:57 08:46:33 25° 79° (E) 08:53:10 435.215
UNISAT 6 21 Oct 08:44:42 08:47:01 14° 59° (ENE) 08:49:21 437.425
Oscar 11 21 Oct 08:46:18 08:48:44 15° 90° (E) 08:51:09 .
AAUSAT CUBESAT 2 21 Oct 08:51:04 08:54:59 41° 98° (E) 08:58:53 437.432
XW-2C 21 Oct 08:52:54 08:54:02 11° 298° (WNW) 08:55:09 145.795 - 145.815
RS-15 21 Oct 08:55:03 09:06:53 55° 41° (NE) 09:18:03 29.354- 29.394
TIGRISAT 21 Oct 08:58:26 09:01:26 17° 61° (ENE) 09:04:26 435.000
STRAND 1 21 Oct 08:59:46 09:03:40 22° 268° (W) 09:07:37 437.568
PCSat 21 Oct 09:17:17 09:22:42 76° 303° (WNW) 09:28:09 145.827
AO-73 21 Oct 09:23:17 09:27:34 51° 99° (E) 09:31:42 145.935
XW-2A 21 Oct 09:29:19 09:32:30 42° 287° (WNW) 09:35:39 145.665 - 145.685
PRISM 21 Oct 09:32:04 09:34:27 15° 62° (ENE) 09:36:52 437.425
CUTE-I 21 Oct 09:33:09 09:35:55 14° 304° (NW) 09:38:40 437.470
CUBEBUG 2 21 Oct 09:34:44 09:39:00 36° 291° (WNW) 09:43:07 437.445
HO-68 21 Oct 09:34:56 09:41:45 47° 296° (WNW) 09:48:32 435.675
FO-29 21 Oct 09:45:39 09:50:45 52° 261° (W) 09:56:17 435.910
ZACube-1 21 Oct 09:45:54 09:50:19 80° 286° (WNW) 09:54:35 437.345
CUTE 1.7 + AOD 2 21 Oct 10:02:28 10:03:55 12° 300° (WNW) 10:05:21 437.475
nSIGHT-1 21 Oct 10:05:59 10:08:49 29° 140° (SE) 10:11:40 .
SEEDS 21 Oct 10:06:46 10:09:14 15° 297° (WNW) 10:11:41 437.485
NO-84 21 Oct 10:08:37 10:12:33 82° 34° (NE) 10:16:09 435.350 FM
DELFI C3 21 Oct 10:10:18 10:13:36 25° 95° (E) 10:16:53 145.870
UWE-3 21 Oct 10:11:07 10:14:54 26° 294° (WNW) 10:18:33 435.000/436.395/437.385
UNISAT 6 21 Oct 10:18:24 10:23:03 80° 257° (WSW) 10:27:48 437.425
Oscar 11 21 Oct 10:21:01 10:25:13 55° 287° (WNW) 10:29:25 .
AAUSAT CUBESAT 2 21 Oct 10:27:13 10:30:09 19° 295° (WNW) 10:33:05 437.432
TIGRISAT 21 Oct 10:32:59 10:37:36 63° 260° (W) 10:42:17 435.000
YUBILEINY 21 Oct 10:33:45 10:42:25 75° 280° (W) 10:51:12 435.215
EO-88 21 Oct 10:39:34 10:42:41 26° 96° (E) 10:45:45 145.990 - 145.960
ISS 21 Oct 10:40:58 10:44:09 54° 144° (SE) 10:47:20 437.550
Max Valier Satellite 21 Oct 10:51:24 10:55:01 52° 100° (E) 10:58:35 145.860
AO-73 21 Oct 11:00:32 11:03:22 17° 297° (WNW) 11:06:09 145.935
PCSat 21 Oct 11:03:27 11:07:01 17° 324° (NW) 11:10:36 145.827
EO-79 21 Oct 11:04:24 11:07:03 16° 62° (ENE) 11:09:43 145.935-145.965
PRISM 21 Oct 11:05:22 11:09:19 52° 260° (W) 11:13:18 437.425
RS-15 21 Oct 11:08:04 11:19:27 55° 247° (WSW) 11:30:15 29.354- 29.394
POLYITAN 1 21 Oct 11:09:07 11:12:03 18° 63° (ENE) 11:14:59 437.675
HO-68 21 Oct 11:26:09 11:27:44 11° 317° (NW) 11:29:20 435.675
LO-87 21 Oct 11:26:48 11:28:33 13° 91° (E) 11:30:18 145.935 - 145.965
QB50P2 21 Oct 11:28:30 11:32:14 30° 68° (ENE) 11:36:00 145.880/145.840
NANOSAT C BR1 21 Oct 11:30:51 11:34:23 26° 67° (ENE) 11:37:56 145.865
AIST 2D 21 Oct 11:37:47 11:41:17 88° 77° (ENE) 11:44:48 435.315
DUCHIFAT 1 21 Oct 11:40:48 11:44:28 29° 68° (ENE) 11:48:09 145.980
nSIGHT-1 21 Oct 11:41:54 11:45:00 46° 338° (NNW) 11:48:07 .
DELFI C3 21 Oct 11:44:55 11:48:18 28° 292° (WNW) 11:51:42 145.870
NO-84 21 Oct 11:47:25 11:49:20 14° 236° (SW) 11:51:10 435.350 FM
BEESAT 3 21 Oct 12:06:48 12:10:22 32° 117° (ESE) 12:13:59 437.485
EO-88 21 Oct 12:13:21 12:16:12 22° 293° (WNW) 12:19:02 145.990 - 145.960
ISS 21 Oct 12:17:44 12:20:44 34° 343° (NNW) 12:23:46 437.550
Max Valier Satellite 21 Oct 12:26:44 12:28:23 13° 297° (WNW) 12:30:02 145.860
ESTCUBE 1 21 Oct 12:31:57 12:36:20 51° 100° (E) 12:40:42 437.505/2401.250
M-CUBED/EXP-1 PRIME 21 Oct 12:33:36 12:35:09 13° 58° (ENE) 12:36:40 437.505
YUBILEINY 21 Oct 12:35:32 12:40:57 18° 304° (NW) 12:46:25 435.215
EO-79 21 Oct 12:38:12 12:42:23 54° 260° (W) 12:46:36 145.935-145.965
POLYITAN 1 21 Oct 12:43:19 12:47:28 48° 261° (W) 12:51:39 437.675
LO-87 21 Oct 12:58:43 13:02:13 44° 288° (WNW) 13:05:40 145.935 - 145.965
SPROUT 21 Oct 12:59:41 13:03:18 26° 95° (E) 13:06:53 437.525
Oscar 19 21 Oct 13:03:14 13:07:51 34° 66° (ENE) 13:12:29 437.125/150
QB50P2 21 Oct 13:04:22 13:08:00 27° 265° (W) 13:11:39 145.880/145.840
NANOSAT C BR1 21 Oct 13:06:11 13:09:58 31° 264° (W) 13:13:47 145.865
DUCHIFAT 1 21 Oct 13:16:26 13:20:05 28° 265° (W) 13:23:46 145.980
BUGSAT 1 21 Oct 13:18:42 13:22:54 86° 76° (ENE) 13:27:10 437.445
nSIGHT-1 21 Oct 13:19:07 13:21:47 24° 357° (N) 13:24:28 .
RS-15 21 Oct 13:27:16 13:28:44 10° 270° (W) 13:30:13 29.354- 29.394
BEESAT 2 21 Oct 13:29:40 13:33:39 73° 124° (ESE) 13:37:43 435.950
SO-50 21 Oct 13:41:09 13:43:17 13° 29° (NNE) 13:45:26 436.795
Gurwin Techsat 1B 21 Oct 13:43:17 13:48:27 55° 70° (ENE) 13:53:38 435.225
BEESAT 3 21 Oct 13:44:22 13:47:55 29° 315° (NW) 13:51:30 437.485
VELOX 1 21 Oct 13:52:50 13:57:16 64° 102° (ESE) 14:01:40 145.980
AO-85 21 Oct 13:53:20 13:57:12 81° 124° (SE) 14:01:13 145.980
ISS 21 Oct 13:55:03 13:57:49 24° 4° (N) 14:00:36 437.550
M-CUBED/EXP-1 PRIME 21 Oct 14:06:05 14:09:17 42° 254° (WSW) 14:12:26 437.505
AO-7 21 Oct 14:08:45 14:15:39 31° 53° (NE) 14:22:33 .
ESTCUBE 1 21 Oct 14:09:41 14:12:45 18° 297° (WNW) 14:15:49 437.505/2401.250
SPROUT 21 Oct 14:35:23 14:39:11 31° 292° (WNW) 14:42:58 437.525
Oscar 19 21 Oct 14:42:32 14:47:09 33° 264° (W) 14:51:48 437.125/150
DX 1 21 Oct 14:55:15 14:59:39 73° 103° (ESE) 15:04:00 434.975-435.025
nSIGHT-1 21 Oct 14:55:40 14:58:39 35° 17° (NNE) 15:01:39 .
50 SAT 21 Oct 14:56:37 14:59:55 71° 285° (WNW) 15:03:12 437.505
BEESAT 2 21 Oct 15:09:07 15:11:51 17° 322° (NW) 15:14:37 435.950
UKube-1 21 Oct 15:16:42 15:21:03 79° 103° (ESE) 15:25:23 .
ITAMSAT 1 21 Oct 15:17:26 15:22:14 40° 67° (ENE) 15:27:05 435.822/435.867
ITUPSAT 1 21 Oct 15:18:11 15:19:43 11° 88° (E) 15:21:14 437.325
SO-50 21 Oct 15:20:14 15:24:45 54° 50° (NE) 15:29:20 436.795
Gurwin Techsat 1B 21 Oct 15:24:44 15:28:44 21° 268° (W) 15:32:44 435.225
VELOX 1 21 Oct 15:30:38 15:33:12 15° 299° (WNW) 15:35:47 145.980
ISS 21 Oct 15:31:36 15:34:47 50° 23° (NNE) 15:37:59 437.550
BEESAT 21 Oct 15:31:37 15:34:36 16° 91° (E) 15:37:34 436.000
AO-85 21 Oct 15:35:44 15:38:09 15° 325° (NW) 15:40:39 145.980
AO-7 21 Oct 15:59:29 16:07:46 72° 254° (WSW) 16:16:05 .
